Hourly Data Report for May 10, 2004

SHERBROOKE A
QUEBEC

45°26'00.000" N
71°41'00.000" W
241.40 m
7028124
71610
YSC

Download Data

Hourly Data (May 2004)
Hourly Data Report for May 10, 2004
TIME
LST
Temp Definition
°C
Dew Point Definition
°C
Rel Hum Definition
%
Precip. Amount Definition
mm

Wind Dir Definition
10's deg

Wind Spd Definition
km/h
Visibility Definition
km
Stn Press Definition
kPa
Hmdx Definition


Wind Chill Definition


Weather Definition


00:00 7.2 -6.4 37   5 11 15.0 99.25      
01:00 5.3 -6.4 43   5 9 15.0 99.24      
02:00 3.9 -5.5 50   7 9 15.0 99.21      
03:00 3.4 -6.2 49   9 9 15.0 99.18      
04:00 2.0 -4.9 60   8 11 15.0 99.22      
05:00 2.1 -4.6 61   9 11 15.0 99.25      
06:00 5.3 -3.8 52   6 9 15.0 99.27      
07:00 9.7 -2.3 43   11 9 24.1 99.28     Mostly Cloudy
08:00 14.3 1.4 41   10 4 24.1 99.20     Mostly Cloudy
09:00 17.1 2.2 37   18 20 24.1 99.11     Mostly Cloudy
10:00 18.9 2.7 34   16 20 24.1 99.01     Mostly Cloudy
11:00 18.7 2.9 35   20 20 24.1 98.84     Mostly Cloudy
12:00 18.4 3.5 37   19 11 24.1 98.79     Cloudy
13:00 16.3 7.4 56   20 6 19.3 98.77     Rain Showers
14:00 13.1 9.1 77   24 7 16.1 98.84     Rain Showers
15:00 11.4 10.0 91   13 7 24.1 98.75     Cloudy
16:00 11.5 10.1 91   11 4 19.3 98.74     Rain Showers
17:00 11.0 9.4 90   13 7 15.0 98.71     Rain
18:00 10.9 9.4 90   9 4 15.0 98.66      
19:00 10.9 9.4 90   9 4 12.9 98.58      
20:00 10.8 9.0 89   11 7 15.0 98.52      
21:00 10.9 8.5 85     0 15.0 98.50      
22:00 10.9 9.2 89     0 15.0 98.48      
23:00 11.2 9.7 90     0 15.0 98.46      

Notes on Data Quality.

Legend

  • E = Estimated
  • M = Missing
  • NA = Not Available*
  • [empty] = Indicates an unobserved value
Date modified: